Location: Pontbriand
(46.1542°N, 71.2542°W)
Time: 17:26:36
(UTC+00:00)

Envisat - Pass Details

Date: 10 October 2022
Orbit: 763 x 765 km, 98.2° (Epoch: 30 November)

Event Time Altitude Azimuth Distance (km) Brightness Sun altitude
Rises 07:57:53 0° 27° (NNE) 3,243 7.0 -30.8°
Reaches altitude 10° 08:00:49 10° 44° (NE) 2,311 6.3 -30.4°
Maximum altitude 08:04:31 20° 91° (E) 1,718 5.4 -29.8°
Drops below altitude 10° 08:08:11 10° 138° (SE) 2,297 5.7 -29.2°
Sets 08:11:05 0° 155° (SSE) 3,217 6.3 -28.8°
